Theta_e
309 307 308 308 307 307 308 308 309 309 310 312 310 309 309 306 302 302 301 298 297 297 301 307 310 311 311 312 314 315 316 315 314 313 312 311 309 308 308 308 308 308 309 309
308 307 307 307 307 308 309 309 308 308 308 309 309 310 306 302 301 300 298 295 294 294 299 302 305 309 310 311 312 314 315 315 314 314 313 312 310 309 308 308 308 308 308 309
309 310 309 308 308 309 308 309 308 310 309 309 310 310 306 300 300 297 294 292 291 290 291 295 300 302 307 310 311 313 314 315 314 314 313 313 311 309 308 308 307 307 308 308
309 308 310 310 311 308 311 308 309 309 312 313 310 313 310 302 298 295 292 290 288 288 291 293 295 299 302 305 309 311 312 314 314 314 314 314 313 312 310 308 307 307 307 307
311 312 312 311 311 309 311 310 309 311 310 311 311 313 310 301 299 295 291 288 287 286 286 289 291 293 297 303 305 308 310 311 313 313 314 314 313 312 310 309 307 307 307 307
309 310 311 310 310 309 310 311 309 308 308 313 310 312 309 297 295 292 289 287 286 284 286 288 290 292 296 300 304 305 307 308 310 311 311 311 312 312 311 309 308 307 307 306
309 310 309 310 312 310 310 311 313 313 313 315 308 311 299 294 291 289 287 286 284 283 283 285 288 290 291 294 297 301 303 305 307 309 309 309 309 309 309 309 309 307 306 306
311 313 311 310 312 312 309 310 313 317 314 311 308 312 299 291 288 287 285 284 283 282 282 282 283 285 287 289 291 294 297 301 304 306 307 308 308 308 308 307 307 307 307 306
310 312 308 310 308 310 310 311 310 312 311 311 310 294 292 290 288 286 285 283 282 281 280 280 282 283 284 286 288 289 292 293 295 299 303 306 306 307 307 307 306 306 305 305
306 307 307 307 308 308 310 308 313 310 317 316 312 303 298 288 286 285 283 282 281 280 280 281 281 281 283 284 285 287 289 290 291 293 296 298 300 303 305 306 306 306 305 304
300 304 303 301 305 306 306 305 305 307 309 314 314 302 287 285 284 283 282 281 280 279 278 279 280 281 281 282 283 285 286 287 289 289 291 293 295 297 299 301 303 304 304 305
296 298 299 300 298 298 298 300 301 304 302 301 306 297 284 284 282 282 281 280 279 278 277 278 278 279 280 281 281 282 283 284 285 285 287 289 291 292 293 295 296 298 301 302
295 293 290 295 303 297 295 290 294 299 299 298 303 293 281 280 281 280 279 278 277 277 276 277 277 277 278 279 280 280 280 281 282 284 285 286 287 288 289 290 291 292 294 296
296 295 290 289 294 293 294 288 288 289 285 286 288 281 276 277 278 279 277 276 276 276 276 276 276 276 276 276 277 279 279 279 281 282 282 283 284 285 286 286 288 289 290 291
291 288 293 295 293 291 284 286 286 284 277 285 278 276 270 271 275 277 276 276 275 275 275 275 275 275 275 276 276 276 277 278 279 280 280 281 282 283 284 285 285 286 287 288
291 287 292 287 290 288 282 282 283 283 279 275 272 273 274 275 275 275 274 274 274 273 273 274 273 274 274 274 274 275 275 275 276 276 277 279 280 281 282 283 284 284 285 285
291 290 284 283 290 288 286 279 282 281 277 278 280 273 274 273 274 273 273 273 273 273 273 273 272 272 273 273 273 273 274 275 275 275 276 275 276 277 279 280 281 282 283 283
291 291 290 282 292 287 278 277 276 277 274 273 274 271 273 273 273 273 273 273 273 272 272 272 272 272 272 272 272 272 273 273 274 274 275 275 276 276 276 277 277 278 279 280
291 292 289 285 283 280 275 274 274 273 273 270 269 270 272 272 273 274 274 274 272 272 271 271 271 271 271 271 271 271 272 272 272 273 273 273 273 274 274 275 276 276 277 278
287 285 290 282 286 287 274 275 275 275 274 273 272 271 271 270 268 269 273 271 271 271 271 271 271 271 271 271 270 271 271 271 271 271 271 272 272 272 273 273 273 274 275 276
284 281 279 280 279 276 271 275 275 275 275 271 271 271 270 267 270 270 270 270 270 270 270 270 270 270 270 270 270 270 270 270 269 269 270 271 271 271 272 272 272 273 273 273
275 274 275 272 272 279 275 274 275 272 271 270 270 271 269 269 270 269 269 269 269 269 269 269 269 269 269 269 269 269 269 269 269 269 269 270 270 270 270 270 271 271 271 272
279 273 275 276 276 274 274 273 273 272 271 270 270 269 269 268 269 269 269 269 269 268 268 268 268 268 268 268 268 267 268 268 268 268 268 269 269 269 269 269 269 270 270 270
271 271 272 270 273 272 272 272 272 271 270 270 269 268 268 268 268 267 267 267 267 267 267 267 267 266 266 267 267 267 267 267 267 267 267 268 268 268 268 269 269 269 269 269
270 271 267 268 270 273 273 272 270 270 269 268 268 268 268 266 266 266 266 266 266 266 266 266 265 265 265 265 265 265 266 265 265 266 266 266 266 267 267 268 268 268 268 268
271 269 266 267 269 269 270 270 269 268 267 267 267 267 267 266 266 266 265 265 265 265 265 265 264 264 264 264 264 264 264 264 264 264 265 265 264 265 266 266 267 267 267 268
Wind_Speed
1 3 10 8 7 2 3 2 3 4 2 1 7 7 10 14 27 25 28 29 32 34 28 22 17 11 10 20 29 32 32 32 31 31 31 29 27 24 22 20 18 17 17 16
4 7 7 3 5 5 2 4 7 7 3 6 5 8 11 14 15 24 26 30 34 38 34 29 24 16 6 11 21 28 31 32 32 32 31 29 26 25 23 21 20 19 18 18
6 4 5 5 3 4 4 5 6 9 4 3 2 5 5 8 21 25 29 29 35 37 41 38 33 30 15 5 9 21 27 30 32 32 30 29 26 25 25 25 23 21 20 20
5 4 4 4 6 8 4 9 8 4 2 3 1 4 1 6 14 20 28 33 35 39 40 37 36 33 30 19 4 7 17 23 28 31 30 29 27 26 26 24 22 21 21 21
5 1 2 3 6 7 8 4 7 4 4 2 2 2 4 5 10 17 24 29 32 35 37 40 37 34 30 22 15 3 5 13 22 28 30 28 25 24 23 23 23 22 22 22
6 3 3 6 3 6 2 3 5 4 3 3 8 8 1 5 8 13 19 25 29 36 38 36 34 33 32 27 17 13 6 5 13 19 25 26 25 23 22 22 23 23 23 22
5 3 2 1 1 1 4 5 3 3 0 6 2 2 5 9 11 15 16 23 25 31 36 38 38 38 35 33 28 21 15 6 4 12 19 22 23 24 22 21 21 22 22 22
1 5 2 4 2 2 5 7 5 6 4 4 2 5 4 11 15 17 18 19 23 29 34 36 35 35 34 32 29 26 22 16 6 4 9 16 20 21 22 22 20 20 21 21
4 5 5 3 4 1 1 3 2 1 0 1 4 4 4 8 12 18 19 21 24 26 32 34 33 33 33 31 30 27 24 21 18 10 1 6 12 17 20 22 22 21 19 19
3 5 4 6 4 3 1 2 2 2 4 5 4 4 3 9 12 12 17 21 21 22 26 30 31 31 30 29 27 24 22 22 20 17 12 8 3 8 14 17 19 20 20 20
3 2 6 6 7 4 6 4 5 2 2 4 8 2 5 7 9 10 14 17 20 22 25 28 28 28 28 26 26 25 23 22 19 18 16 12 9 5 3 8 13 17 20 21
2 3 3 5 4 11 6 4 4 2 5 2 3 1 5 5 8 11 13 15 19 22 25 27 27 27 27 27 27 27 24 22 21 19 17 14 12 9 6 5 3 7 13 16
3 1 3 3 2 6 6 4 3 2 2 4 1 2 6 10 10 10 12 15 18 20 24 28 29 29 29 28 27 26 25 23 22 19 18 16 14 12 11 10 9 7 6 6
3 2 6 6 2 2 1 3 2 2 2 2 4 2 4 6 8 8 11 15 20 25 27 27 28 29 29 29 28 26 25 24 22 20 20 18 16 15 13 12 12 11 10 9
4 2 1 2 3 2 2 1 2 2 3 5 3 3 5 5 6 10 12 16 20 25 27 28 28 28 27 28 28 27 27 25 25 22 20 19 17 16 14 13 12 11 10 11
4 3 3 3 6 7 5 4 5 3 2 2 2 4 4 11 15 15 16 14 20 26 27 26 27 26 26 27 28 27 26 24 23 24 24 22 20 19 17 16 14 14 12 11
1 1 3 4 3 4 2 2 2 1 2 1 2 3 7 7 16 20 19 9 21 30 29 27 28 27 26 26 26 26 25 24 23 22 21 21 22 21 20 18 17 17 16 15
3 2 2 3 2 1 1 2 2 3 2 4 3 5 9 16 24 25 6 5 27 32 29 28 28 27 25 25 24 25 23 23 24 24 23 22 22 23 21 19 17 17 17 16
3 1 0 2 2 1 3 3 1 3 3 2 3 9 17 21 19 3 5 12 32 28 27 28 27 25 26 24 24 25 24 24 25 24 25 25 25 25 26 23 20 19 19 18
6 5 1 2 3 4 3 2 4 4 3 4 7 13 17 16 4 4 13 32 31 27 27 27 26 26 25 24 24 24 24 25 26 27 29 29 27 27 27 26 23 22 20 21
3 3 3 1 2 3 4 5 4 4 3 8 10 13 12 3 11 31 33 32 29 29 29 27 26 26 25 25 25 27 29 26 27 30 28 27 26 26 26 26 24 24 23 23
2 2 0 2 3 4 4 2 2 3 3 15 17 15 21 27 30 32 32 32 32 32 31 29 29 28 28 26 29 32 29 31 32 30 29 28 26 25 24 24 24 22 22 23
1 1 2 3 2 1 2 3 5 3 14 22 20 24 26 27 29 28 31 32 32 32 31 30 30 31 30 32 30 31 33 32 32 32 32 30 28 25 24 23 24 25 24 24
4 7 1 4 2 11 8 7 2 15 24 20 24 26 24 25 25 29 30 30 30 30 30 29 30 34 36 31 31 30 30 30 32 33 33 32 31 29 26 26 26 26 26 24
2 6 3 4 3 8 7 4 24 25 16 26 26 24 24 24 27 26 28 29 29 30 27 28 34 31 32 30 30 29 30 30 31 32 32 31 31 30 29 27 26 25 24 22
5 1 1 4 6 7 16 26 24 20 26 25 23 24 24 22 24 24 26 27 28 26 29 29 28 30 31 33 33 32 30 28 28 30 31 31 28 28 27 28 28 23 21 21
Wind_Direction
106 123 221 198 205 140 114 190 262 258 246 317 227 263 282 71 47 35 31 23 15 10 2 2 354 309 296 272 256 245 237 233 229 225 224 226 227 228 229 230 230 232 233 232
43 246 229 139 182 229 268 287 280 285 261 174 289 272 35 59 58 51 36 26 16 12 12 13 14 15 357 290 270 253 242 236 232 229 229 230 231 231 233 234 234 234 233 232
168 220 60 149 152 185 223 208 232 230 326 254 314 304 132 91 63 47 36 30 23 17 14 17 20 21 18 339 273 258 245 238 232 232 228 232 230 233 234 233 233 233 232 231
231 273 205 167 218 166 262 214 225 237 76 240 45 285 163 143 62 42 28 24 17 16 20 23 23 25 26 27 346 264 255 245 234 233 231 236 239 242 242 242 242 240 237 235
249 193 154 164 219 152 225 140 187 177 178 323 217 178 242 26 26 24 23 20 16 16 20 23 25 26 29 35 43 45 242 242 239 233 233 240 244 248 252 251 247 245 243 240
247 287 254 217 186 181 122 97 58 52 106 269 193 166 5 19 6 18 19 19 16 15 19 23 26 29 32 36 46 58 69 221 228 232 232 237 249 255 257 255 252 250 248 245
325 247 291 268 184 75 88 68 320 333 36 230 275 177 66 62 48 39 24 18 16 16 18 20 21 23 26 31 34 40 48 72 184 220 226 235 241 248 259 265 263 259 256 253
2 329 47 360 274 199 179 161 172 233 212 235 112 230 104 82 59 41 34 23 18 17 17 19 19 20 21 25 30 34 37 42 51 189 219 233 240 244 248 251 252 259 261 259
5 268 337 25 316 314 140 177 215 240 315 55 190 97 131 65 34 28 25 23 18 15 15 15 16 17 17 19 23 25 28 34 39 44 76 238 243 246 247 249 252 253 250 248
33 296 358 311 341 32 79 337 305 16 279 242 239 123 103 13 5 12 15 17 14 12 13 14 14 13 13 13 14 18 22 25 25 31 43 41 353 253 249 254 255 251 246 245
41 176 306 348 28 350 345 18 6 262 8 264 282 124 36 30 16 14 15 14 11 8 6 9 10 10 9 8 9 9 11 12 16 16 22 26 29 27 312 254 250 249 248 248
346 106 287 246 89 81 63 50 48 47 318 310 273 220 23 42 44 23 18 12 8 5 3 4 6 6 7 7 7 8 6 6 6 7 8 10 7 7 5 8 342 268 253 250
335 337 354 103 209 24 61 12 346 244 202 222 275 267 47 28 21 22 18 13 10 4 1 0 2 4 3 3 3 3 3 4 2 0 360 358 359 360 360 354 344 330 308 289
188 207 179 200 171 166 205 72 346 137 129 244 236 266 351 1 352 357 6 359 358 360 359 359 358 358 357 357 357 358 358 357 359 357 358 355 355 356 354 349 341 334 328 311
78 181 334 191 237 156 111 14 1 139 204 163 252 199 263 300 330 349 343 344 350 353 353 351 351 349 349 348 348 351 351 351 352 352 352 352 351 348 345 341 338 333 324 321
11 297 28 300 42 91 96 30 91 75 79 57 103 289 226 334 337 335 331 335 350 350 346 344 342 341 341 341 339 340 343 344 344 345 345 344 343 343 343 339 334 329 321 314
346 96 56 282 104 134 339 347 27 124 66 343 237 250 340 325 327 319 315 312 349 345 339 337 336 335 334 334 333 332 334 332 332 334 332 334 337 338 337 337 333 327 322 315
171 144 133 238 24 305 142 41 69 113 85 24 18 324 319 315 315 315 296 251 339 336 331 330 329 328 329 329 327 324 325 323 322 322 321 321 324 326 325 327 327 323 320 316
135 130 57 162 185 324 349 312 53 104 273 255 264 307 333 336 327 332 157 318 326 326 324 324 324 323 322 325 323 320 321 321 320 317 317 317 319 319 316 317 317 315 312 309
62 35 144 76 159 239 231 275 305 143 287 347 334 324 332 344 18 262 304 319 323 323 324 323 322 320 320 320 320 317 317 320 316 314 314 314 314 312 311 310 308 304 302 299
5 14 99 27 224 296 248 322 135 78 243 355 346 339 330 300 288 306 316 319 323 324 326 326 322 320 320 322 320 318 318 318 315 314 313 312 313 309 306 304 301 300 297 293
102 69 326 80 51 301 346 48 156 170 35 352 342 337 324 317 315 317 319 322 324 326 327 327 325 323 323 323 320 319 318 318 315 314 314 313 311 309 306 303 300 295 291 288
358 169 242 191 226 339 296 330 183 343 338 340 329 326 322 315 316 317 319 322 323 324 324 326 323 320 321 321 322 317 317 317 316 314 313 313 310 307 305 302 300 298 295 293
3 14 206 25 354 328 336 133 33 334 320 319 321 320 318 316 319 320 318 319 322 323 325 323 321 321 319 321 318 317 317 317 313 312 312 313 311 312 305 301 298 296 295 292
267 339 335 271 318 354 130 13 333 327 322 320 320 322 322 322 316 318 318 321 322 323 324 321 318 318 318 320 319 319 319 317 313 311 310 310 310 309 307 302 301 300 296 296
6 250 90 257 315 288 288 309 321 320 322 325 325 324 322 318 317 319 319 321 322 328 315 317 321 320 319 319 319 318 317 315 311 308 310 310 308 308 305 306 302 293 291 287